Time,TemperatureF,DewpointF,PressureIn,WindDirection,WindDirectionDegrees,WindSpeedMPH,WindSpeedGustMPH,Humidity,HourlyPrecipIn,Conditions,Clouds,dailyrainin,SoftwareType,DateUTC
2013-02-08 00:13:00,50.0,31.0,29.97,SE,124,0.0,1.0,48,0.00,,,0.00,weatherlink.com 1.10,2013-02-08 07:13:00,
2013-02-08 00:29:00,50.6,30.0,29.97,SE,135,3.0,4.0,46,0.00,,,0.00,weatherlink.com 1.10,2013-02-08 07:29:00,
2013-02-08 00:43:00,50.5,31.0,29.96,SSE,153,1.0,5.0,47,0.00,,,0.00,weatherlink.com 1.10,2013-02-08 07:43:00,
2013-02-08 00:58:00,51.1,31.0,29.97,SE,134,4.0,6.0,46,0.00,,,0.00,weatherlink.com 1.10,2013-02-08 07:58:00,
2013-02-08 01:13:00,50.3,31.0,29.97,SE,124,1.0,4.0,48,0.00,,,0.00,weatherlink.com 1.10,2013-02-08 08:13:00,
2013-02-08 01:29:00,48.9,31.0,29.97,ESE,113,0.0,2.0,50,0.00,,,0.00,weatherlink.com 1.10,2013-02-08 08:29:00,
2013-02-08 01:44:00,48.2,31.0,29.96,East,80,2.0,2.0,52,0.00,,,0.00,weatherlink.com 1.10,2013-02-08 08:44:00,
2013-02-08 01:59:00,48.1,31.0,29.96,ENE,65,1.0,1.0,52,0.00,,,0.00,weatherlink.com 1.10,2013-02-08 08:59:00,
2013-02-08 02:14:00,48.8,31.0,29.95,ENE,70,1.0,2.0,51,0.00,,,0.00,weatherlink.com 1.10,2013-02-08 09:14:00,
2013-02-08 02:29:00,49.6,31.0,29.95,East,98,0.0,4.0,49,0.00,,,0.00,weatherlink.com 1.10,2013-02-08 09:29:00,
2013-02-08 02:44:00,49.4,31.0,29.95,ENE,67,1.0,1.0,49,0.00,,,0.00,weatherlink.com 1.10,2013-02-08 09:44:00,
2013-02-08 02:59:00,48.0,31.0,29.95,ENE,65,0.0,0.0,52,0.00,,,0.00,weatherlink.com 1.10,2013-02-08 09:59:00,
2013-02-08 03:14:00,46.8,31.0,29.95,ENE,67,1.0,1.0,55,0.00,,,0.00,weatherlink.com 1.10,2013-02-08 10:14:00,
2013-02-08 03:29:00,47.1,31.0,29.95,ESE,105,0.0,1.0,54,0.00,,,0.00,weatherlink.com 1.10,2013-02-08 10:29:00,
2013-02-08 03:44:00,47.1,31.0,29.94,ESE,117,0.0,2.0,53,0.00,,,0.00,weatherlink.com 1.10,2013-02-08 10:44:00,
2013-02-08 03:59:00,47.3,30.0,29.93,ESE,118,0.0,1.0,52,0.00,,,0.00,weatherlink.com 1.10,2013-02-08 10:59:00,
2013-02-08 04:14:00,47.4,30.0,29.93,ENE,61,0.0,2.0,52,0.00,,,0.00,weatherlink.com 1.10,2013-02-08 11:14:00,
2013-02-08 04:29:00,47.6,31.0,29.93,East,100,0.0,2.0,52,0.00,,,0.00,weatherlink.com 1.10,2013-02-08 11:29:00,
2013-02-08 04:44:00,47.9,30.0,29.92,SSW,193,0.0,3.0,50,0.00,,,0.00,weatherlink.com 1.10,2013-02-08 11:44:00,
2013-02-08 04:59:00,48.1,30.0,29.92,SE,126,1.0,3.0,49,0.00,,,0.00,weatherlink.com 1.10,2013-02-08 11:59:00,
2013-02-08 05:14:00,48.1,30.0,29.92,SSE,159,1.0,3.0,49,0.00,,,0.00,weatherlink.com 1.10,2013-02-08 12:14:00,
2013-02-08 05:29:00,47.7,30.0,29.91,SSW,207,0.0,2.0,50,0.00,,,0.00,weatherlink.com 1.10,2013-02-08 12:29:00,
2013-02-08 05:44:00,46.8,29.0,29.91,SSE,165,0.0,1.0,51,0.00,,,0.00,weatherlink.com 1.10,2013-02-08 12:44:00,
2013-02-08 05:59:00,46.1,30.0,29.91,SE,126,0.0,1.0,53,0.00,,,0.00,weatherlink.com 1.10,2013-02-08 12:59:00,
2013-02-08 06:14:00,46.3,30.0,29.91,NE,49,0.0,2.0,53,0.00,,,0.00,weatherlink.com 1.10,2013-02-08 13:14:00,
2013-02-08 06:29:00,46.1,30.0,29.90,East,98,0.0,1.0,54,0.00,,,0.00,weatherlink.com 1.10,2013-02-08 13:29:00,
2013-02-08 06:44:00,46.1,30.0,29.90,ESE,120,0.0,1.0,54,0.00,,,0.00,weatherlink.com 1.10,2013-02-08 13:44:00,
2013-02-08 06:59:00,46.2,31.0,29.91,East,84,0.0,2.0,55,0.00,,,0.00,weatherlink.com 1.10,2013-02-08 13:59:00,
2013-02-08 07:14:00,45.5,31.0,29.90,SE,133,0.0,1.0,57,0.00,,,0.00,weatherlink.com 1.10,2013-02-08 14:14:00,
2013-02-08 07:29:00,44.7,31.0,29.91,SE,131,0.0,0.0,60,0.00,,,0.00,weatherlink.com 1.10,2013-02-08 14:29:00,
2013-02-08 07:44:00,44.9,32.0,29.91,SSW,206,0.0,1.0,61,0.00,,,0.00,weatherlink.com 1.10,2013-02-08 14:44:00,
2013-02-08 07:59:00,45.6,32.0,29.91,WSW,249,0.0,1.0,59,0.00,,,0.00,weatherlink.com 1.10,2013-02-08 14:59:00,
2013-02-08 08:14:00,46.4,31.0,29.92,WSW,249,0.0,1.0,56,0.00,,,0.00,weatherlink.com 1.10,2013-02-08 15:14:00,
2013-02-08 08:29:00,48.3,30.0,29.92,WSW,252,1.0,1.0,50,0.00,,,0.00,weatherlink.com 1.10,2013-02-08 15:29:00,
2013-02-08 08:44:00,49.7,31.0,29.92,WSW,245,0.0,2.0,49,0.00,,,0.00,weatherlink.com 1.10,2013-02-08 15:44:00,
2013-02-08 08:59:00,52.8,28.0,29.93,South,176,1.0,6.0,39,0.00,,,0.00,weatherlink.com 1.10,2013-02-08 15:59:00,
2013-02-08 09:14:00,56.6,28.0,29.93,SE,138,1.0,7.0,34,0.00,,,0.00,weatherlink.com 1.10,2013-02-08 16:14:00,
2013-02-08 09:29:00,58.6,29.0,29.93,East,91,3.0,4.0,32,0.00,,,0.00,weatherlink.com 1.10,2013-02-08 16:29:00,
2013-02-08 09:45:00,61.3,27.0,29.93,ESE,115,2.0,5.0,27,0.00,,,0.00,weatherlink.com 1.10,2013-02-08 16:45:00,
2013-02-08 10:00:00,62.1,27.0,29.93,South,177,1.0,5.0,26,0.00,,,0.00,weatherlink.com 1.10,2013-02-08 17:00:00,
2013-02-08 10:15:00,62.1,27.0,29.93,ESE,116,5.0,7.0,26,0.00,,,0.00,weatherlink.com 1.10,2013-02-08 17:15:00,
2013-02-08 10:30:00,62.8,27.0,29.94,ENE,65,0.0,6.0,26,0.00,,,0.00,weatherlink.com 1.10,2013-02-08 17:30:00,
2013-02-08 10:45:00,64.3,27.0,29.93,SSE,158,0.0,4.0,24,0.00,,,0.00,weatherlink.com 1.10,2013-02-08 17:45:00,
2013-02-08 11:00:00,64.8,26.0,29.93,SW,228,0.0,3.0,23,0.00,,,0.00,weatherlink.com 1.10,2013-02-08 18:00:00,
2013-02-08 11:15:00,65.7,27.0,29.93,WSW,238,1.0,6.0,23,0.00,,,0.00,weatherlink.com 1.10,2013-02-08 18:15:00,
2013-02-08 11:30:00,65.6,27.0,29.92,SW,228,3.0,7.0,23,0.00,,,0.00,weatherlink.com 1.10,2013-02-08 18:30:00,
2013-02-08 11:45:00,66.7,27.0,29.92,West,276,8.0,11.0,22,0.00,,,0.00,weatherlink.com 1.10,2013-02-08 18:45:00,
2013-02-08 12:00:00,66.8,27.0,29.91,WSW,255,1.0,7.0,22,0.00,,,0.00,weatherlink.com 1.10,2013-02-08 19:00:00,
2013-02-08 12:15:00,66.9,23.0,29.90,WSW,255,2.0,11.0,19,0.00,,,0.00,weatherlink.com 1.10,2013-02-08 19:15:00,
2013-02-08 12:30:00,66.2,21.0,29.90,WSW,245,5.0,13.0,18,0.00,,,0.00,weatherlink.com 1.10,2013-02-08 19:30:00,
2013-02-08 12:45:00,66.3,20.0,29.89,West,278,8.0,11.0,17,0.00,,,0.00,weatherlink.com 1.10,2013-02-08 19:45:00,
2013-02-08 13:00:00,66.9,21.0,29.88,WSW,242,9.0,15.0,17,0.00,,,0.00,weatherlink.com 1.10,2013-02-08 20:00:00,
2013-02-08 13:15:00,67.0,19.0,29.87,SW,221,4.0,12.0,16,0.00,,,0.00,weatherlink.com 1.10,2013-02-08 20:15:00,
2013-02-08 13:30:00,66.6,16.0,29.87,SW,229,12.0,14.0,14,0.00,,,0.00,weatherlink.com 1.10,2013-02-08 20:30:00,
2013-02-08 13:45:00,66.9,16.0,29.86,WSW,252,6.0,17.0,14,0.00,,,0.00,weatherlink.com 1.10,2013-02-08 20:45:00,
2013-02-08 14:00:00,67.3,16.0,29.86,WSW,245,9.0,13.0,14,0.00,,,0.00,weatherlink.com 1.10,2013-02-08 21:00:00,
2013-02-08 14:15:00,67.1,16.0,29.85,WSW,256,4.0,10.0,14,0.00,,,0.00,weatherlink.com 1.10,2013-02-08 21:15:00,
2013-02-08 14:30:00,67.1,16.0,29.84,WSW,245,11.0,15.0,14,0.00,,,0.00,weatherlink.com 1.10,2013-02-08 21:30:00,
2013-02-08 14:45:00,67.2,18.0,29.84,West,277,5.0,10.0,15,0.00,,,0.00,weatherlink.com 1.10,2013-02-08 21:45:00,
2013-02-08 15:00:00,67.0,19.0,29.83,West,259,4.0,9.0,16,0.00,,,0.00,weatherlink.com 1.10,2013-02-08 22:00:00,
2013-02-08 15:15:00,66.9,19.0,29.82,WSW,253,4.0,8.0,16,0.00,,,0.00,weatherlink.com 1.10,2013-02-08 22:15:00,
2013-02-08 15:30:00,67.3,19.0,29.82,WSW,248,6.0,14.0,16,0.00,,,0.00,weatherlink.com 1.10,2013-02-08 22:30:00,
2013-02-08 15:45:00,67.0,19.0,29.82,SW,226,3.0,11.0,16,0.00,,,0.00,weatherlink.com 1.10,2013-02-08 22:45:00,
2013-02-08 16:00:00,67.7,20.0,29.82,SW,225,4.0,11.0,16,0.00,,,0.00,weatherlink.com 1.10,2013-02-08 23:00:00,
2013-02-08 16:15:00,68.2,20.0,29.81,South,183,2.0,9.0,16,0.00,,,0.00,weatherlink.com 1.10,2013-02-08 23:15:00,
2013-02-08 16:30:00,67.5,21.0,29.81,SW,231,7.0,10.0,17,0.00,,,0.00,weatherlink.com 1.10,2013-02-08 23:30:00,
2013-02-08 16:45:00,66.4,20.0,29.81,SW,231,2.0,12.0,17,0.00,,,0.00,weatherlink.com 1.10,2013-02-08 23:45:00,
2013-02-08 17:00:00,66.0,20.0,29.81,WSW,249,10.0,16.0,17,0.00,,,0.00,weatherlink.com 1.10,2013-02-09 00:00:00,
2013-02-08 17:15:00,65.8,21.0,29.80,SSW,205,5.0,15.0,18,0.00,,,0.00,weatherlink.com 1.10,2013-02-09 00:15:00,
2013-02-08 17:31:00,65.4,22.0,29.80,SW,219,7.0,15.0,19,0.00,,,0.00,weatherlink.com 1.10,2013-02-09 00:31:00,
2013-02-08 17:46:00,65.7,20.0,29.80,SW,228,8.0,14.0,17,0.00,,,0.00,weatherlink.com 1.10,2013-02-09 00:46:00,
2013-02-08 18:01:00,64.9,17.0,29.79,WSW,242,9.0,14.0,16,0.00,,,0.00,weatherlink.com 1.10,2013-02-09 01:01:00,
2013-02-08 18:16:00,63.9,19.0,29.80,SW,222,9.0,9.0,18,0.00,,,0.00,weatherlink.com 1.10,2013-02-09 01:16:00,
2013-02-08 18:31:00,63.0,16.0,29.80,WSW,245,5.0,10.0,16,0.00,,,0.00,weatherlink.com 1.10,2013-02-09 01:31:00,
2013-02-08 18:46:00,62.6,17.0,29.79,WSW,256,9.0,13.0,17,0.00,,,0.00,weatherlink.com 1.10,2013-02-09 01:46:00,
2013-02-08 19:01:00,62.1,19.0,29.80,West,274,5.0,10.0,19,0.00,,,0.00,weatherlink.com 1.10,2013-02-09 02:01:00,
2013-02-08 19:16:00,61.0,23.0,29.79,WSW,252,3.0,5.0,23,0.00,,,0.00,weatherlink.com 1.10,2013-02-09 02:16:00,
2013-02-08 19:31:00,61.6,20.0,29.79,WSW,249,5.0,12.0,20,0.00,,,0.00,weatherlink.com 1.10,2013-02-09 02:31:00,
2013-02-08 19:46:00,61.4,21.0,29.79,West,270,7.0,11.0,21,0.00,,,0.00,weatherlink.com 1.10,2013-02-09 02:46:00,
2013-02-08 20:01:00,61.2,21.0,29.79,WSW,249,5.0,16.0,21,0.00,,,0.00,weatherlink.com 1.10,2013-02-09 03:01:00,
2013-02-08 20:16:00,60.7,21.0,29.79,West,259,10.0,14.0,22,0.00,,,0.00,weatherlink.com 1.10,2013-02-09 03:16:00,
2013-02-08 20:32:00,60.0,27.0,29.80,WNW,293,6.0,10.0,28,0.00,,,0.00,weatherlink.com 1.10,2013-02-09 03:32:00,
2013-02-08 20:46:00,58.0,33.0,29.80,WNW,302,2.0,7.0,39,0.00,,,0.00,weatherlink.com 1.10,2013-02-09 03:46:00,
2013-02-08 21:01:00,56.8,35.0,29.81,WNW,297,6.0,10.0,44,0.00,,,0.00,weatherlink.com 1.10,2013-02-09 04:01:00,
2013-02-08 21:16:00,56.0,34.0,29.81,WNW,293,6.0,11.0,44,0.00,,,0.00,weatherlink.com 1.10,2013-02-09 04:16:00,
2013-02-08 21:31:00,54.9,35.0,29.82,West,263,6.0,11.0,47,0.00,,,0.00,weatherlink.com 1.10,2013-02-09 04:31:00,
2013-02-08 21:46:00,54.0,33.0,29.82,WNW,282,9.0,14.0,46,0.00,,,0.00,weatherlink.com 1.10,2013-02-09 04:46:00,
2013-02-08 22:01:00,53.1,32.0,29.82,West,280,4.0,13.0,44,0.00,,,0.00,weatherlink.com 1.10,2013-02-09 05:01:00,
2013-02-08 22:16:00,52.8,24.0,29.83,WSW,255,7.0,12.0,33,0.00,,,0.00,weatherlink.com 1.10,2013-02-09 05:16:00,
2013-02-08 22:31:00,53.2,21.0,29.84,West,259,8.0,16.0,28,0.00,,,0.00,weatherlink.com 1.10,2013-02-09 05:31:00,
2013-02-08 22:46:00,53.0,21.0,29.84,West,279,7.0,16.0,29,0.00,,,0.00,weatherlink.com 1.10,2013-02-09 05:46:00,
2013-02-08 23:01:00,51.9,22.0,29.84,WNW,288,5.0,10.0,31,0.00,,,0.00,weatherlink.com 1.10,2013-02-09 06:01:00,
2013-02-08 23:16:00,51.2,23.0,29.84,West,259,2.0,10.0,33,0.00,,,0.00,weatherlink.com 1.10,2013-02-09 06:16:00,
2013-02-08 23:31:00,50.6,24.0,29.84,West,264,1.0,6.0,35,0.00,,,0.00,weatherlink.com 1.10,2013-02-09 06:31:00,
2013-02-08 23:46:00,49.6,24.0,29.84,SSW,204,1.0,2.0,37,0.00,,,0.00,weatherlink.com 1.10,2013-02-09 06:46:00,